Showing default

SHIYAN 6 03 (SY-6 03), 48157

Orbit data source: Space-Track

SHIYAN 6 03 (SY-6 03), 48157 is a payload satellite owned by CNSA (CN) in SSO that was launched on Thu, 08 Apr 2021 UTC via a CHANG ZHENG 4B launch vehicle from the Taiyaun Space Center, China (TSC). Payload-class satellites include a variety of spacecraft equipped with specific instruments for various scientific and technological missions. These include communications satellites like Starlink; space stations such as the ISS; scientific satellites like the Hubble; Earth observation satellites from companies like Planet Labs, Umbra, and HawkEye 360; GPS; miniature CubeSats for education and research; and military/defense satellites.

Loading next visibility...
Identifier
48157, 2021-028A
Orbit
SSO
Country
Flag of CNCN / PRC
Related business
Manufacturer
DFH Shenzhen
Mission
Operational Defense Imaging
Bus & Motor
SW6, AOCS
Mass
~1,500 kg wet, ~1,400 kg dry
Launch date (UTC)
2021-04-08 (5 years ago)
Launch vehicle
CHANG ZHENG 4B
Launch site
Taiyaun Space Center, China (TSC)
Object type
Payload
Rocket body
Debris
Shape & HBR
Hex Cyl + 2 Pan, 3.0 m
Radar Cross Section
3.180 m², Large (>1 m²)

Expand to show TLE details & history
Last TLE update: 22 hours ago

TLE from 22 hours ago
0 SHIYAN 6 03 (SY-6 03)
1 48157U 21028A   26172.51900035 -.00000031  00000-0  14472-4 0  9996
2 48157  99.5274 186.4259 0047188  76.1244 284.5149 13.77600974260106
Epoch: 2026-06-21T12:27Z
TLE epoch observation values (Epoch: 2026-06-21T12:27:21.630Z)
Latitude
-0.00006°
Longitude
89.86768°
Altitude
966.696 km
Speed
7.373 km/s
True Right ascension
12h 25m 42s
True Declination
0° 00' 00"
Sunlit
Object was in daylight at epoch
Visualization orbit readout
Latitude
Unknown
Longitude
Unknown
Altitude
Unknown
Speed
Unknown
Apparent Right ascension
Unknown
Apparent Declination
Unknown
Sunlit
N/A
Visualization observer readout
Local Sidereal Time
21:27:47
Azimuth
Unknown
Elevation
Unknown
Doppler factor
Unknown
Orbital elements
Apogee altitude
1,004.337 km
Perigee altitude
934.991 km
Semi-major axis
7,347.801 km
Eccentricity
0.00472
Inclination
99.5274°
RAAN
186.4259°
Arg. of periapsis
76.1244°
True anomaly
283.99066°
Mean anomaly
284.5149°
Eccentric anomaly
284.25285°
Mean motion
3.44594 °/min
Orbital period
104.47 mins
BSTAR
0.000014472
Loading maneuver chart data...
Computing Atmospheric mass density...
Loading historical data...
Loading historical data...
Loading historical data...
Loading historical data...
Loading historical data...
Loading historical data...
Loading historical data...
Other satellites on launch #28 in the year 2021 (2021-04-08 UTC)

Documentation

Showing up to 5 results
|